Flag for Germany Weather past 2 weeks in Bottrop, North Rhine-Westphalia, Germany

Now
72 °F

Fog.


Feels Like: 71 °F
Forecast: 60 / 74 °F
Wind: 7 mph from North

Location: Duesseldorf

Current Time: Jul 29, 2014 at 11:34:58 AM

Latest Report: Jul 29, 2014 at 10:50 AM


Visibility: 3 mi

Pressure: 29.83 "Hg

Humidity: 83%

Dew point: 66 °F

Location of BottropLocation

Historic Weather in Bottrop — Graph

°F

Bottrop temperature yesterday

Maximum temperature yesterday: 82 °F (at 1:20 PM)
Minimum temperature yesterday: 64 °F (at 1:20 AM)
Average temperature yesterday: 71 °F

Past Weeks' High & Low Weather Summary

 TemperatureHumidityPressure
High93 °F (Jul 19, 3:50 PM)100% (Jul 16, 6:20 AM)30.18 "Hg (Jul 16, 6:20 AM)
Low55 °F (Jul 15, 1:50 AM)23% (Jul 19, 4:50 PM)29.77 "Hg (Jul 19, 10:50 PM)
Average71 °F70%29.98 "Hg
* Reported Jul 14 10:20 AM — Jul 29 10:20 AM, Bottrop, Weather by CustomWeather, © 2014

Note: Actual official high and low records may vary slightly from our data, if they occured in-between our weather recording intervals... More about our weather records

Advertising

Bottrop weather history for previous 24 hours

 ConditionsComfort  
Time TempWeatherWind HumidityBarometerVisibility
10:20 AM
Jul 29
68 °FFog.7 mph88%29.86 "Hg2 mi
9:50 AM68 °FFog.7 mph94%29.83 "Hg2 mi
9:20 AM66 °FFog.7 mph94%29.83 "Hg1 mi
8:50 AM66 °FFog.7 mph94%29.83 "Hg2 mi
8:20 AM66 °FFog.6 mph94%29.83 "Hg2 mi
7:50 AM66 °FFog.6 mph94%29.83 "Hg2 mi
7:20 AM64 °FScattered showers. Fog.7 mph94%29.83 "Hg3 mi
6:50 AM64 °FSprinkles. Fog.1 mph94%29.83 "Hg3 mi
6:20 AM64 °FScattered showers. Fog.5 mph94%29.83 "Hg2 mi
5:50 AM64 °FPassing clouds.1 mph94%29.83 "Hg5 mi
5:20 AM64 °FClear.2 mph94%29.83 "Hg6 mi
4:50 AM64 °FClear.3 mph94%29.83 "Hg4 mi
4:20 AM64 °FClear.5 mph94%29.86 "Hg4 mi
3:50 AM64 °FClear.5 mph94%29.86 "Hg10 mi
3:20 AM64 °FClear.6 mph94%29.86 "Hg10 mi
2:50 AM64 °FClear.3 mph94%29.86 "Hg10 mi
2:20 AM64 °FClear.5 mph94%29.86 "Hg10 mi
1:50 AM66 °FClear.6 mph88%29.83 "Hg10 mi
1:20 AM66 °FClear.7 mph88%29.86 "Hg10 mi
12:50 AM66 °FClear.6 mph94%29.86 "Hg10 mi
12:20 AM66 °FLight rain. Clear.8 mph94%29.86 "HgN/A
10:50 PM
Jul 28
66 °FPassing clouds.5 mph94%29.86 "HgN/A
10:20 PM66 °FPartly sunny.5 mph94%29.86 "HgN/A
9:50 PM68 °FSunny.6 mph88%29.89 "Hg10 mi
9:20 PM68 °FSunny.6 mph88%29.86 "Hg10 mi
8:50 PM70 °FSunny.5 mph83%29.86 "Hg10 mi
8:20 PM70 °FSunny.7 mph88%29.86 "Hg10 mi
7:50 PM70 °FBroken clouds.3 mph88%29.86 "HgN/A
7:20 PM70 °FScattered clouds.6 mph94%29.86 "HgN/A
6:50 PM68 °FScattered showers. Scattered clouds.6 mph88%29.83 "HgN/A
6:20 PM70 °FThunderstorms. Partly sunny.5 mph88%29.83 "Hg6 mi
5:50 PM75 °FThundershowers. Broken clouds.6 mph69%29.83 "Hg6 mi
5:20 PM75 °FBroken clouds.8 mph69%29.83 "HgN/A
4:50 PM77 °FScattered showers. Broken clouds.10 mph69%29.83 "HgN/A
4:20 PM79 °FBroken clouds.9 mph61%29.83 "HgN/A
3:50 PM75 °FSprinkles. Broken clouds.9 mph69%29.83 "HgN/A
3:20 PM75 °FBroken clouds.16 mph57%29.83 "HgN/A
2:50 PM77 °FScattered clouds.7 mph65%29.83 "HgN/A
2:20 PM75 °FBroken clouds.15 mph61%29.83 "HgN/A
1:50 PM81 °FBroken clouds.8 mph48%29.83 "HgN/A
1:20 PM82 °FScattered clouds.8 mph48%29.83 "HgN/A
12:50 PM81 °FPartly sunny.9 mph51%29.83 "HgN/A
12:20 PM79 °FPassing clouds.6 mph54%29.83 "HgN/A
11:50 AM79 °FPassing clouds.5 mph54%29.86 "HgN/A
11:20 AM77 °FPassing clouds.7 mph57%29.86 "HgN/A
Weather by CustomWeather, © 2014

See weather overviewHow to use our weather pages